This is the latest recevied weather packets stored in our database for station/object EA5AER-5. If no packets are shown the sender has not sent any weather packets the latest 10 day(s).
| Time | Temp. | Humidity | Pressure | Rain* | Wind** | Luminosity | Snow |
|---|---|---|---|---|---|---|---|
| 1777626815 | 18.89° C | 86% | 1018.5 hPa | 0.25 mm | - | 121 W/m² | - |
| 1777626784 | 18.89° C | 86% | 1018.5 hPa | 0.25 mm | - | 121 W/m² | - |
| 1777625553 | 18.89° C | 86% | 1018.5 hPa | 0.25 mm | - | 121 W/m² | - |
| 1777624332 | 18.89° C | 87% | 1018.3 hPa | 0.25 mm | - | 100 W/m² | - |
| 1777623117 | 18.89° C | 87% | 1018.1 hPa | 0 mm | - | 102 W/m² | - |
| 1777622035 | 18.89° C | 83% | 1017.1 hPa | 0 mm | - | 153 W/m² | - |
| 1777620919 | 18.89° C | 83% | 1017.1 hPa | 0 mm | - | 153 W/m² | - |
| 1777619773 | 18.89° C | 83% | 1017.1 hPa | 0 mm | - | 153 W/m² | - |
| 1777618545 | 18.89° C | 83% | 1017.1 hPa | 0 mm | - | 153 W/m² | - |
| 1777617354 | 18.89° C | 84% | 1017 hPa | 0 mm | - | 11 W/m² | - |
| 1777616160 | 18.89° C | 84% | 1017 hPa | 0 mm | - | 11 W/m² | - |
| 1777615020 | 18.89° C | 85% | 1016.2 hPa | 0 mm | - | 0 W/m² | - |
| 1777613810 | 18.89° C | 85% | 1016.2 hPa | 0 mm | - | 0 W/m² | - |
| 1777612572 | 18.89° C | 85% | 1016.2 hPa | 0 mm | - | 0 W/m² | - |
| 1777611330 | 18.89° C | 84% | 1015.9 hPa | 0 mm | - | 0 W/m² | - |
| 1777610119 | 18.89° C | 84% | 1016.6 hPa | 0 mm | - | 0 W/m² | - |
| 1777608967 | 18.89° C | 84% | 1016.6 hPa | 0 mm | - | 0 W/m² | - |
| 1777607685 | 18.89° C | 84% | 1016.6 hPa | 0 mm | - | 0 W/m² | - |
| 1777606573 | 18.89° C | 84% | 1016.6 hPa | 0 mm | - | 0 W/m² | - |
| 1777605433 | 18.89° C | 84% | 1016.6 hPa | 0 mm | - | 0 W/m² | - |
| 1777604236 | 18.89° C | 82% | 1016.3 hPa | 0 mm | - | 0 W/m² | - |
| 1777603065 | 18.89° C | 82% | 1016.3 hPa | 0 mm | - | 0 W/m² | - |
| 1777601876 | 18.89° C | 81% | 1016.2 hPa | 0 mm | - | 0 W/m² | - |
| 1777600652 | 19.44° C | 79% | 1017 hPa | 0 mm | - | 0 W/m² | - |
| 1777599340 | 19.44° C | 79% | 1017 hPa | 0 mm | - | 0 W/m² | - |
* Rain latest hour (hover to see other rain measurements)
** Current wind speed in m/s (hover to see current wind gust speed)